This is the latest recevied weather packets stored in our database for station/object KJ7BRE-1. If no packets are shown the sender has not sent any weather packets the latest 10 day(s).
| Time | Temp. | Humidity | Pressure | Rain* | Wind** | Luminosity | Snow |
|---|---|---|---|---|---|---|---|
| 1778182551 | 18.89° C | 47% | 1013.5 hPa | 0 mm | - | - | - |
| 1778182250 | 19.44° C | 47% | 1013.5 hPa | 0 mm | - | - | - |
| 1778181949 | 20° C | 48% | 1013.5 hPa | 0 mm | - | - | - |
| 1778181648 | 19.44° C | 48% | 1013.5 hPa | 0 mm | - | - | - |
| 1778181347 | 18.33° C | 50% | 1013.5 hPa | 0 mm | - | - | - |
| 1778181045 | 18.89° C | 50% | 1013.5 hPa | 0 mm | - | - | - |
| 1778180744 | 18.89° C | 50% | 1013.9 hPa | 0 mm | - | - | - |
| 1778180443 | 17.22° C | 52% | 1013.9 hPa | 0 mm | - | - | - |
| 1778180142 | 16.67° C | 54% | 1013.9 hPa | 0 mm | - | - | - |
| 1778179840 | 16.67° C | 53% | 1013.9 hPa | 0 mm | - | - | - |
| 1778179539 | 16.67° C | 54% | 1013.9 hPa | 0 mm | - | - | - |
| 1778179238 | 16.67° C | 53% | 1014.2 hPa | 0 mm | - | - | - |
| 1778178937 | 17.22° C | 53% | 1014.2 hPa | 0 mm | - | - | - |
| 1778178635 | 16.67° C | 55% | 1014.2 hPa | 0 mm | - | - | - |
| 1778178334 | 16.67° C | 54% | 1014.2 hPa | 0 mm | - | - | - |
| 1778178033 | 16.67° C | 54% | 1014.2 hPa | 0 mm | - | - | - |
| 1778177732 | 16.67° C | 53% | 1014.2 hPa | 0 mm | - | - | - |
| 1778177430 | 16.11° C | 56% | 1014.6 hPa | 0 mm | - | - | - |
| 1778177129 | 16.11° C | 56% | 1014.6 hPa | 0 mm | - | - | - |
| 1778176828 | 16.11° C | 56% | 1014.6 hPa | 0 mm | - | - | - |
| 1778176527 | 16.11° C | 56% | 1014.6 hPa | 0 mm | - | - | - |
| 1778176226 | 16.11° C | 59% | 1014.6 hPa | 0 mm | - | - | - |
| 1778175924 | 15.56° C | 59% | 1014.6 hPa | 0 mm | - | - | - |
| 1778175623 | 15.56° C | 56% | 1014.6 hPa | 0 mm | - | - | - |
| 1778175322 | 15.56° C | 56% | 1014.9 hPa | 0 mm | - | - | - |
* Rain latest hour (hover to see other rain measurements)
** Current wind speed in m/s (hover to see current wind gust speed)